Location: Rodson Ranch
(38.7188°N, 119.3202°W)
Time: 11:39:43
(UTC+00:00)

CZ-4B R/B - Pass Details

Date: 29 October 2020
Orbit: 388 x 461 km, 97.6° (Epoch: 01 December)

Event Time Altitude Azimuth Distance (km) Brightness Sun altitude
Rises 13:36:18 0° 203° (SSW) 2,481 5.0 -9.4°
Reaches altitude 10° 13:38:56 10° 225° (SW) 1,610 3.9 -8.9°
Maximum altitude 13:41:09 16° 265° (W) 1,280 3.1 -8.5°
Drops below altitude 10° 13:43:23 10° 306° (NW) 1,608 3.6 -8.1°
Enters shadow 13:44:42 - 319° (NW) 2,010 4.2 -7.8°
